GW7250 Weather Reports


Display with metric or nautical units.
time (UTC)temp
F
wind
direction
speed
MPH
gust
MPH
rain 1hr
in
rain 24hr
in
rain mn
in
humidity
%
barometer
mb
20260906111008 70 136 0.0 0.0 0.00 0.00 0.00 98 1013.3
20260906110502 70 98 1.0 2.0 0.00 0.00 0.00 98 1013.0
20260906110001 70 0 0.0 2.0 0.00 0.00 0.00 98 1013.2
20260906105457 70 341 2.0 2.0 0.00 0.00 0.00 98 1013.3
20260906104953 70 343 1.0 2.0 0.00 0.00 0.00 98 1013.1
20260906104451 70 353 2.0 1.0 0.00 0.00 0.00 98 1012.9
20260906103951 70 22 1.0 1.0 0.00 0.00 0.00 98 1012.8
20260906103449 69 69 0.0 0.0 0.00 0.00 0.00 98 1012.7
20260906102944 69 69 0.0 0.0 0.00 0.00 0.00 98 1012.9
20260906102445 69 69 0.0 0.0 0.00 0.00 0.00 98 1012.9
20260906101945 69 72 0.0 0.0 0.00 0.00 0.00 97 1012.9
20260906101441 69 72 0.0 0.0 0.00 0.00 0.00 97 1012.7
20260906100941 69 72 0.0 0.0 0.00 0.00 0.00 97 1012.8
20260906100436 69 72 0.0 0.0 0.00 0.00 0.00 97 1012.7
20260906095936 69 72 0.0 0.0 0.00 0.00 0.00 97 1012.8
20260906095431 69 72 0.0 1.0 0.00 0.00 0.00 97 1012.7
20260906094926 69 73 0.0 0.0 0.00 0.00 0.00 97 1012.5
20260906094420 69 73 0.0 0.0 0.00 0.00 0.00 97 1012.5
20260906093916 69 72 0.0 0.0 0.00 0.00 0.00 97 1012.4
20260906093413 69 85 0.0 0.0 0.00 0.00 0.00 97 1012.5
20260906092912 69 85 0.0 0.0 0.00 0.00 0.00 97 1012.6
20260906092412 69 85 0.0 0.0 0.00 0.00 0.00 97 1012.6
20260906091908 68 85 0.0 0.0 0.00 0.00 0.00 97 1012.5
20260906091404 68 85 0.0 0.0 0.00 0.00 0.00 96 1012.6
20260906090900 68 85 0.0 0.0 0.00 0.00 0.00 96 1012.5
20260906090359 69 85 0.0 0.0 0.00 0.00 0.00 96 1012.6
20260906085854 69 85 0.0 1.0 0.00 0.00 0.00 96 1012.4
20260906085354 69 85 0.0 0.0 0.00 0.00 0.00 96 1012.4
20260906084848 69 86 0.0 0.0 0.00 0.00 0.00 96 1012.2
20260906084348 69 86 0.0 0.0 0.00 0.00 0.00 96 1012.4
20260906083842 69 86 0.0 0.0 0.00 0.00 0.00 96 1012.4
20260906083338 69 86 0.0 0.0 0.00 0.00 0.00 96 1012.2
20260906082838 69 86 0.0 0.0 0.00 0.00 0.00 96 1012.3
20260906082333 69 86 0.0 0.0 0.00 0.00 0.00 96 1012.5
20260906081829 69 85 0.0 0.0 0.00 0.00 0.00 96 1012.2
20260906081324 69 85 1.0 1.0 0.00 0.00 0.00 96 1012.4
20260906080820 69 86 0.0 0.0 0.00 0.00 0.00 95 1012.3
20260906080316 69 86 0.0 0.0 0.00 0.00 0.00 95 1012.4
20260906075816 70 86 1.0 1.0 0.00 0.00 0.00 94 1012.6
20260906075316 70 91 0.0 0.0 0.00 0.00 0.00 94 1012.5
20260906074811 70 91 0.0 0.0 0.00 0.00 0.00 93 1012.3
20260906074311 71 91 0.0 1.0 0.00 0.00 0.00 91 1012.3
20260906073810 71 91 1.0 1.0 0.00 0.00 0.00 92 1012.4
20260906073305 71 91 1.0 1.0 0.00 0.00 0.00 91 1012.2
20260906072801 72 92 0.0 0.0 0.00 0.00 0.00 89 1012.5
20260906072256 73 92 0.0 0.0 0.00 0.00 0.00 88 1012.3
20260906071752 73 92 0.0 0.0 0.00 0.00 0.00 87 1012.3
20260906071252 73 92 1.0 1.0 0.00 0.00 0.00 87 1012.3
20260906070749 72 92 1.0 2.0 0.00 0.00 0.00 89 1012.3
20260906070244 71 69 1.0 2.0 0.00 0.00 0.00 92 1012.5
20260906065744 71 112 1.0 1.0 0.00 0.00 0.00 94 1012.5
20260906065239 70 124 1.0 1.0 0.00 0.00 0.00 95 1012.6
20260906064735 70 126 1.0 1.0 0.00 0.00 0.00 94 1012.7
20260906064230 71 126 0.0 1.0 0.00 0.00 0.00 94 1012.8
20260906063725 71 126 0.0 0.0 0.00 0.00 0.00 93 1012.6
20260906063221 71 126 0.0 0.0 0.00 0.00 0.00 92 1012.6
20260906062716 72 126 0.0 0.0 0.00 0.00 0.00 90 1012.8
20260906062215 73 126 0.0 0.0 0.00 0.00 0.00 89 1012.9
20260906061711 72 126 0.0 0.0 0.00 0.00 0.00 90 1012.9
20260906061207 72 126 0.0 0.0 0.00 0.00 0.00 90 1012.9
20260906060703 73 126 0.0 1.0 0.00 0.00 0.00 90 1013.0
20260906060200 71 126 0.0 1.0 0.00 0.00 0.00 93 1012.7
20260906055655 71 126 0.0 0.0 0.00 0.00 0.00 95 1012.8
20260906055150 71 126 0.0 0.0 0.00 0.00 0.00 94 1013.0
20260906054646 71 126 0.0 0.0 0.00 0.00 0.00 94 1012.8
20260906054140 72 126 0.0 0.0 0.00 0.00 0.00 93 1013.0
20260906053637 72 126 0.0 0.0 0.00 0.00 0.00 92 1012.9
20260906053137 73 126 0.0 0.0 0.00 0.00 0.00 91 1013.0
20260906052633 73 126 0.0 1.0 0.00 0.00 0.00 91 1012.9
20260906052130 73 126 0.0 1.0 0.00 0.00 0.00 92 1013.0
20260906051626 73 126 0.0 1.0 0.00 0.00 0.00 93 1012.9
20260906051125 73 132 1.0 2.0 0.00 0.00 0.00 92 1013.2
20260906050621 73 131 0.0 0.0 0.00 0.00 0.00 92 1013.2
20260906050116 73 131 0.0 1.0 0.00 0.00 0.00 93 1013.1
20260906045614 73 131 2.0 2.0 0.00 0.00 0.00 92 1013.5
20260906045110 73 130 0.0 0.0 0.00 0.00 0.00 92 1013.2
20260906044606 73 130 1.0 1.0 0.00 0.00 0.00 92 1013.3
20260906044101 73 130 0.0 0.0 0.00 0.00 0.00 91 1013.1
20260906043557 74 130 1.0 1.0 0.00 0.00 0.00 90 1013.1
20260906043052 74 129 0.0 0.0 0.00 0.00 0.00 88 1012.9
20260906042551 74 129 0.0 0.0 0.00 0.00 0.00 87 1012.9
20260906042046 74 129 0.0 1.0 0.00 0.00 0.00 88 1012.9
20260906041542 75 129 0.0 0.0 0.00 0.00 0.00 86 1013.0
20260906041037 75 129 0.0 0.0 0.00 0.00 0.00 85 1013.0
20260906040532 76 129 0.0 0.0 0.00 0.00 0.00 84 1013.1
20260906040028 76 124 0.0 0.0 0.00 0.00 0.00 83 1013.0
20260906035523 76 124 0.0 1.0 0.00 0.00 0.00 82 1012.5
20260906035019 76 121 1.0 1.0 0.00 0.00 0.00 82 1012.7
20260906034518 76 123 0.0 2.0 0.00 0.00 0.00 82 1012.6
20260906034013 77 108 0.0 2.0 0.00 0.00 0.00 83 1012.6
20260906033508 77 84 1.0 2.0 0.00 0.00 0.00 83 1012.5
20260906033004 77 90 0.0 0.0 0.00 0.00 0.00 84 1012.1
20260906032501 77 89 1.0 1.0 0.00 0.00 0.00 84 1012.3
20260906032000 77 193 1.0 1.0 0.00 0.00 0.00 84 1012.1
20260906031456 77 72 2.0 3.0 0.00 0.00 0.00 85 1012.5
20260906030951 76 110 2.0 2.0 0.00 0.00 0.00 87 1012.3
20260906030446 76 42 2.0 4.0 0.00 0.00 0.00 94 1012.5
20260906025940 75 48 2.0 2.0 0.00 0.00 0.00 94 1012.3
20260906025440 75 235 0.0 1.0 0.00 0.00 0.00 94 1012.0
20260906024938 75 104 0.0 0.0 0.00 0.00 0.00 94 1012.2
20260906024438 75 103 0.0 0.0 0.00 0.00 0.00 94 1012.3
20260906023939 76 103 0.0 0.0 0.00 0.00 0.00 93 1012.1
20260906023436 76 103 0.0 0.0 0.00 0.00 0.00 92 1012.4
20260906022936 77 103 0.0 0.0 0.00 0.00 0.00 90 1012.5
20260906022431 78 103 0.0 1.0 0.00 0.00 0.00 88 1012.4
20260906021926 77 111 2.0 2.0 0.00 0.00 0.00 92 1012.2
20260906021427 78 102 1.0 1.0 0.00 0.00 0.00 91 1012.2
20260906020926 78 100 0.0 1.0 0.00 0.00 0.00 90 1011.9
20260906020421 77 84 1.0 1.0 0.00 0.00 0.00 93 1012.0
20260906015915 77 50 1.0 1.0 0.00 0.00 0.00 94 1012.0
20260906015415 78 9 1.0 1.0 0.00 0.00 0.00 93 1011.9
20260906014915 78 9 0.0 0.0 0.00 0.00 0.00 92 1011.9
20260906014414 78 9 1.0 1.0 0.00 0.00 0.00 92 1012.0
20260906013911 78 8 0.0 0.0 0.00 0.00 0.00 91 1012.4
20260906013406 78 3 1.0 1.0 0.00 0.00 0.00 94 1012.1
20260906012902 77 304 1.0 1.0 0.00 0.00 0.00 94 1011.9
20260906012356 77 303 0.0 0.0 0.00 0.00 0.00 93 1011.9
20260906011856 78 303 0.0 2.0 0.00 0.00 0.00 92 1011.8
20260906011356 79 358 0.0 0.0 0.00 0.00 0.00 92 1011.6
20260906010852 79 358 0.0 0.0 0.00 0.00 0.00 92 1011.6
20260906010348 79 358 0.0 0.0 0.00 0.00 0.00 92 1011.5
20260906005843 79 358 0.0 0.0 0.00 0.00 0.00 92 1011.3
20260906005342 79 358 0.0 0.0 0.00 0.00 0.00 92 1011.3
20260906004841 79 358 0.0 0.0 0.00 0.00 0.00 91 1011.5
20260906004341 80 358 0.0 0.0 0.00 0.00 0.00 91 1011.4
20260906003837 80 358 0.0 0.0 0.00 0.00 0.00 91 1011.2
20260906003332 80 358 0.0 0.0 0.00 0.00 0.00 90 1011.4
20260906002827 80 358 0.0 0.0 0.00 0.00 0.00 88 1011.2
20260906002326 81 358 0.0 0.0 0.00 0.00 0.00 88 1011.4
20260906001823 81 358 0.0 0.0 0.00 0.00 0.00 88 1011.6
20260906001318 81 358 0.0 0.0 0.00 0.00 0.00 88 1011.9
20260906000813 82 358 0.0 0.0 0.00 0.00 0.00 86 1011.8
20260906000307 82 358 0.0 0.0 0.00 0.00 0.00 84 1011.9
20260905235802 83 358 0.0 0.0 0.00 0.00 0.00 81 1012.0
20260905235306 83 358 0.0 0.0 0.00 0.00 0.00 81 1012.1
20260905234758 83 358 0.0 0.0 0.00 0.00 0.00 81 1012.1
20260905234252 84 358 0.0 0.0 0.00 0.00 0.00 80 1011.9
20260905233748 84 358 0.0 0.0 0.00 0.00 0.00 80 1011.8
20260905233247 85 358 0.0 0.0 0.00 0.00 0.00 77 1011.8
20260905232747 85 358 0.0 0.0 0.00 0.00 0.00 77 1012.1
20260905232243 85 358 0.0 0.0 0.00 0.00 0.00 75 1012.0
20260905231739 85 358 0.0 0.0 0.00 0.00 0.00 75 1012.1
20260905231234 86 358 1.0 1.0 0.00 0.00 0.00 75 1012.3
20260905230730 87 358 0.0 0.0 0.00 0.00 0.00 68 1011.9
20260905230228 87 358 0.0 0.0 0.00 0.00 0.00 69 1011.9
20260905225727 87 358 0.0 0.0 0.00 0.00 0.00 65 1011.8
20260905225223 88 358 0.0 0.0 0.00 0.00 0.00 63 1011.7
20260905224722 88 358 0.0 0.0 0.00 0.00 0.00 60 1011.9
20260905224217 89 359 1.0 1.0 0.00 0.00 0.00 59 1011.9
20260905223713 89 358 0.0 1.0 0.00 0.00 0.00 59 1011.9
20260905223210 90 358 0.0 1.0 0.00 0.00 0.00 59 1011.8
20260905222706 90 358 0.0 0.0 0.00 0.00 0.00 58 1011.9
20260905222205 91 358 0.0 0.0 0.00 0.00 0.00 60 1012.0
20260905221700 91 358 0.0 0.0 0.00 0.00 0.00 59 1012.0
20260905221157 91 354 0.0 1.0 0.00 0.00 0.00 57 1011.9
20260905220653 92 353 1.0 2.0 0.00 0.00 0.00 53 1011.9
20260905220149 92 12 1.0 3.0 0.00 0.00 0.00 54 1011.7
20260905215648 92 10 3.0 3.0 0.00 0.00 0.00 52 1012.0
20260905215144 92 336 3.0 4.0 0.00 0.00 0.00 52 1011.9
20260905214640 93 292 3.0 4.0 0.00 0.00 0.00 51 1011.9
20260905214135 93 348 4.0 3.0 0.00 0.00 0.00 50 1011.5
20260905213630 93 330 4.0 6.0 0.00 0.00 0.00 49 1012.1
20260905213125 94 326 3.0 3.0 0.00 0.00 0.00 50 1011.7
20260905212620 94 321 2.0 4.0 0.00 0.00 0.00 49 1011.6
20260905212120 94 271 2.0 6.0 0.00 0.00 0.00 49 1011.8
20260905211615 94 333 2.0 2.0 0.00 0.00 0.00 50 1011.7
20260905211110 93 342 2.0 6.0 0.00 0.00 0.00 50 1012.1
20260905210608 95 338 3.0 4.0 0.00 0.00 0.00 47 1012.0
20260905210107 95 334 3.0 4.0 0.00 0.00 0.00 48 1011.8
20260905205606 95 295 3.0 3.0 0.00 0.00 0.00 49 1011.8
20260905205106 95 354 2.0 2.0 0.00 0.00 0.00 49 1011.8
20260905204600 94 296 1.0 3.0 0.00 0.00 0.00 49 1012.0
20260905204056 94 21 1.0 6.0 0.00 0.00 0.00 48 1011.9
20260905203555 94 334 4.0 4.0 0.00 0.00 0.00 47 1012.0
20260905203051 95 327 4.0 6.0 0.00 0.00 0.00 47 1012.1
20260905202546 94 325 2.0 3.0 0.00 0.00 0.00 48 1012.3
20260905202042 94 322 3.0 4.0 0.00 0.00 0.00 48 1012.3
20260905201537 94 324 2.0 6.0 0.00 0.00 0.00 46 1012.2
20260905201037 94 324 1.0 2.0 0.00 0.00 0.00 48 1012.7
20260905200532 94 319 3.0 6.0 0.00 0.00 0.00 46 1012.5
20260905200032 94 308 3.0 4.0 0.00 0.00 0.00 47 1012.5
20260905195526 95 327 2.0 4.0 0.00 0.00 0.00 47 1012.4
20260905195022 95 280 4.0 6.0 0.00 0.00 0.00 46 1012.6
20260905194521 94 105 1.0 2.0 0.00 0.00 0.00 46 1012.8
20260905194021 94 305 2.0 3.0 0.00 0.00 0.00 45 1012.8
20260905193521 94 307 4.0 6.0 0.00 0.00 0.00 47 1012.8
20260905193016 95 156 3.0 4.0 0.00 0.00 0.00 45 1012.7
20260905192512 94 260 2.0 2.0 0.00 0.00 0.00 48 1012.9
20260905192008 94 266 3.0 6.0 0.00 0.00 0.00 45 1013.0
20260905191507 94 157 0.0 3.0 0.00 0.00 0.00 46 1013.1
20260905191006 94 265 4.0 6.0 0.00 0.00 0.00 45 1012.9
20260905190504 94 266 2.0 3.0 0.00 0.00 0.00 45 1013.0
20260905190003 93 280 2.0 2.0 0.00 0.00 0.00 47 1013.0
20260905185458 94 223 2.0 8.0 0.00 0.00 0.00 46 1013.2
20260905184957 93 3 2.0 3.0 0.00 0.00 0.00 49 1013.3
20260905184452 93 301 3.0 3.0 0.00 0.00 0.00 47 1013.5
20260905183951 93 270 2.0 3.0 0.00 0.00 0.00 44 1013.2
20260905183450 93 228 3.0 6.0 0.00 0.00 0.00 47 1013.2
20260905182945 93 303 2.0 7.0 0.00 0.00 0.00 48 1013.5
20260905182445 93 289 2.0 3.0 0.00 0.00 0.00 46 1013.6
20260905181940 91 247 1.0 2.0 0.00 0.00 0.00 50 1013.5
20260905181435 91 175 3.0 6.0 0.00 0.00 0.00 47 1013.7
20260905180934 93 151 2.0 3.0 0.00 0.00 0.00 46 1013.7
20260905180429 91 197 1.0 2.0 0.00 0.00 0.00 47 1013.7
20260905175924 91 184 3.0 4.0 0.00 0.00 0.00 49 1013.8
20260905175423 90 278 2.0 3.0 0.00 0.00 0.00 51 1013.8
20260905174919 89 220 2.0 3.0 0.00 0.00 0.00 52 1014.0
20260905174414 88 251 1.0 3.0 0.00 0.00 0.00 56 1014.0
20260905173910 88 151 6.0 7.0 0.00 0.00 0.00 50 1014.1
20260905173407 89 158 6.0 7.0 0.00 0.00 0.00 53 1014.1
20260905172906 89 257 1.0 3.0 0.00 0.00 0.00 54 1013.9
20260905172404 89 178 2.0 4.0 0.00 0.00 0.00 53 1014.1
20260905171900 88 166 4.0 8.0 0.00 0.00 0.00 54 1014.1
20260905171357 89 146 1.0 2.0 0.00 0.00 0.00 53 1014.1
20260905170853 88 174 0.0 3.0 0.00 0.00 0.00 53 1014.2
20260905170349 88 167 3.0 6.0 0.00 0.00 0.00 52 1014.3
20260905165848 88 132 1.0 3.0 0.00 0.00 0.00 52 1014.5
20260905165344 88 171 2.0 4.0 0.00 0.00 0.00 52 1014.6
20260905164844 88 146 3.0 4.0 0.00 0.00 0.00 52 1014.4
20260905164339 87 169 5.0 6.0 0.00 0.00 0.00 55 1014.6
20260905163835 87 157 2.0 4.0 0.00 0.00 0.00 56 1014.4
20260905163331 87 149 3.0 4.0 0.00 0.00 0.00 57 1014.5
20260905162827 87 165 6.0 7.0 0.00 0.00 0.00 54 1014.6
20260905162327 87 168 2.0 4.0 0.00 0.00 0.00 60 1014.5
20260905161826 87 216 3.0 3.0 0.00 0.00 0.00 61 1014.3
20260905161326 86 157 4.0 7.0 0.00 0.00 0.00 57 1014.6
20260905160824 86 111 4.0 8.0 0.00 0.00 0.00 56 1014.5
20260905160319 86 166 8.0 9.0 0.00 0.00 0.00 56 1014.6
20260905155813 85 187 4.0 6.0 0.00 0.00 0.00 59 1014.7
20260905155312 85 140 6.0 7.0 0.00 0.00 0.00 57 1014.4
20260905154807 85 166 5.0 8.0 0.00 0.00 0.00 58 1014.7
20260905154302 85 146 4.0 8.0 0.00 0.00 0.00 58 1014.8
20260905153758 85 161 4.0 8.0 0.00 0.00 0.00 58 1014.9
20260905153254 85 177 1.0 7.0 0.00 0.00 0.00 60 1015.0
20260905152749 84 191 2.0 6.0 0.00 0.00 0.00 61 1015.1
20260905152248 84 182 4.0 4.0 0.00 0.00 0.00 61 1015.0
20260905151748 84 163 5.0 6.0 0.00 0.00 0.00 60 1015.6
20260905151244 83 166 5.0 7.0 0.00 0.00 0.00 62 1015.4
20260905150743 83 156 3.0 3.0 0.00 0.00 0.00 61 1015.3
20260905150243 84 147 2.0 7.0 0.00 0.00 0.00 60 1015.4
20260905145741 83 173 2.0 6.0 0.00 0.00 0.00 62 1015.3
20260905145236 83 87 2.0 6.0 0.00 0.00 0.00 61 1015.4
20260905144734 83 166 2.0 7.0 0.00 0.00 0.00 62 1015.1
20260905144230 82 122 3.0 4.0 0.00 0.00 0.00 65 1015.5
20260905143729 82 117 3.0 6.0 0.00 0.00 0.00 67 1015.3
20260905143229 80 175 2.0 2.0 0.00 0.00 0.00 70 1015.4
20260905142727 79 174 4.0 6.0 0.00 0.00 0.00 73 1015.5
20260905142222 77 174 2.0 3.0 0.00 0.00 0.00 77 1015.6
20260905141718 76 152 1.0 2.0 0.00 0.00 0.00 78 1015.7
20260905141214 77 114 3.0 6.0 0.00 0.00 0.00 78 1015.8
20260905140708 77 87 3.0 4.0 0.00 0.00 0.00 78 1015.6
20260905140203 77 182 5.0 6.0 0.00 0.00 0.00 79 1015.8
20260905135657 76 151 5.0 9.0 0.00 0.00 0.00 81 1015.7
20260905135154 75 119 2.0 4.0 0.00 0.00 0.00 82 1015.9
20260905134652 74 134 1.0 4.0 0.00 0.00 0.00 84 1015.7
20260905134152 74 141 4.0 7.0 0.00 0.00 0.00 84 1015.7
20260905133647 73 104 1.0 9.0 0.00 0.00 0.00 86 1015.7
20260905133147 73 102 2.0 4.0 0.00 0.00 0.00 86 1015.8
20260905132647 73 142 4.0 6.0 0.00 0.00 0.00 87 1015.8
20260905132142 72 135 2.0 3.0 0.00 0.00 0.00 87 1016.1
20260905131638 72 106 2.0 7.0 0.00 0.00 0.00 86 1016.0
20260905131137 72 71 3.0 4.0 0.00 0.00 0.00 85 1016.0
20260905130632 72 72 3.0 4.0 0.00 0.00 0.00 84 1015.9
20260905130127 73 38 3.0 4.0 0.00 0.00 0.00 83 1016.4
20260905125626 73 76 2.0 3.0 0.00 0.00 0.00 82 1016.3
20260905125122 73 146 6.0 9.0 0.00 0.00 0.00 81 1016.4
20260905124618 73 76 1.0 4.0 0.00 0.00 0.00 82 1016.2
20260905124114 73 53 2.0 4.0 0.00 0.00 0.00 82 1016.0
20260905123609 73 45 3.0 4.0 0.00 0.00 0.00 83 1016.1
20260905123107 74 29 3.0 4.0 0.00 0.00 0.00 82 1016.1
20260905122607 74 265 1.0 1.0 0.00 0.00 0.00 81 1015.1
20260905122106 74 0 0.0 3.0 0.00 0.00 0.00 81 1015.4
20260905121601 74 79 1.0 3.0 0.00 0.00 0.00 80 1015.5
20260905121056 74 96 3.0 3.0 0.00 0.00 0.00 80 1015.3
20260905120555 74 119 1.0 6.0 0.00 0.00 0.00 79 1015.1
20260905120051 75 46 2.0 4.0 0.00 0.00 0.00 79 1015.3
20260905115549 74 44 3.0 4.0 0.00 0.00 0.00 79 1015.5
20260905115044 74 131 3.0 6.0 0.00 0.00 0.00 80 1015.4
20260905114544 74 347 4.0 6.0 0.00 0.00 0.00 81 1015.3
20260905114043 73 108 1.0 4.0 0.00 0.00 0.00 82 1015.0
20260905113538 73 96 0.0 2.0 0.00 0.00 0.00 83 1015.0
20260905113033 74 342 4.0 6.0 0.00 0.00 0.00 82 1015.0
20260905112529 74 359 2.0 4.0 0.00 0.00 0.00 82 1014.8
20260905112024 74 77 3.0 8.0 0.00 0.00 0.00 81 1014.7
20260905111519 75 27 4.0 7.0 0.00 0.00 0.00 80 1014.8